Location: Madison
(43.0730°N, 89.3819°W)
Time: 03:54:38
(UTC-06:00)

ISS - Pass Details

Date: 31 January 2019
Orbit: 403 x 411 km, 51.6° (Epoch: 22 February)

Event Time Altitude Azimuth Distance (km) Brightness Sun altitude
Rises 18:55:34 0° 300° (WNW) 2,338 0.9 -19.7°
Reaches altitude 10° 18:58:04 10° 319° (NW) 1,478 -0.5 -20.2°
Enters shadow 18:59:58 18° 353° (N) 1,073 -1.7 -20.5°
